Weather Roundup
Issued by NWS Chicago, IL

Home | Current Version | Previous Version | Graphics & Text | Print | Product List | Glossary On
Versions: 1 2 3 4 5 6 7 8 9 10 11 12 13 14 15 16 17 18 19 20 21 22 23 24 25 26 27 28 29 30 31 32 33 34 35 36 37 38 39 40 41 42 43 44 45 46 47 48 49 50
490
NZUS59 KLOT 201809
HRRLOT

CHICAGO AREA WEATHER ROUNDUP
NATIONAL WEATHER SERVICE CHICAGO/ROMEOVILLE IL
100 PM CDT FRI OCT 20 2017

NOTE: "FAIR" INDICATES FEW OR NO CLOUDS BELOW 12,000 FEET WITH NO
SIGNIFICANT WEATHER AND/OR OBSTRUCTIONS TO VISIBILITY.

* THESE STATIONS ARE NOT UNDER NWS QUALITY CONTROL. THEY ALSO MAY NOT
  REPORT WEATHER SUCH AS PRECIPITATION OR FOG.

ILZ005-006-012>014-019>023-201900-
NORTHEAST ILLINOIS

CITY           SKY/WX    TMP DP  RH WIND       PRES   REMARKS
OHARE          PTSUNNY   74  52  46 S12       30.12F
6HR MIN TEMP:  51; 6HR MAX TEMP:  74;

MIDWAY         MOSUNNY   76  53  44 SW15      30.13F
6HR MIN TEMP:  56; 6HR MAX TEMP:  76;

AURORA         SUNNY     75  53  46 S9        30.13F
6HR MIN TEMP:  48; 6HR MAX TEMP:  75;

LANSING*       SUNNY     76  55  47 S14       30.15F
JOLIET*        SUNNY     76  55  47 S10       30.14F
WAUKEGAN       SUNNY     76  54  46 SW12      30.10F
6HR MIN TEMP:  54; 6HR MAX TEMP:  76;

DUPAGE AIRPORT SUNNY     74  56  53 S8        30.12F
6HR MIN TEMP:  49; 6HR MAX TEMP:  74;

WHEELING       SUNNY     75  54  47 S9        30.13F
6HR MIN TEMP:  49; 6HR MAX TEMP:  75;

KANKAKEE*      SUNNY     77  51  39 S13       30.16F
MORRIS*        SUNNY     77  52  41 S7        30.12F
LEWIS AIRPORT* SUNNY     75  53  45 S9        30.13F
NORTHERLY ISL    N/A     74  47  38 S10         N/A
$$

WIZ051-052-058>065-066-070>072-201900-
SOUTHEAST WISCONSIN

CITY           SKY/WX    TMP DP  RH WIND       PRES   REMARKS
MILWAUKEE      MOSUNNY   76  52  43 SW15      30.08F
6HR MIN TEMP:  52; 6HR MAX TEMP:  76;

KENOSHA*       SUNNY     75  52  44 SW13      30.10F
RACINE*        SUNNY     76  52  43 S9        30.10F
BURLINGTON     SUNNY     77  52  41 SW14      30.09F
WAUKESHA       SUNNY     72  48  43 SW15G21   30.10F
WEST BEND      SUNNY     73  45  35 SW14      30.06F
$$

INZ001>003-010>013-019-020-201900-
NORTHWEST INDIANA

CITY           SKY/WX    TMP DP  RH WIND       PRES   REMARKS
GARY*          MOSUNNY   79  46  31 S10       30.15F
MICHIGAN CITY* NOT AVBL
RENSSELAER*    NOT AVBL
VALPARAISO     SUNNY     77  53  43 S13       30.17F
$$

LMZ740>746-201900-
SOUTHERN LAKE MICHIGAN

STATION/POSITION TIME  SKY/WX   TEMP WIND        PRES    VSBY
                                AIR  DIR/SP/G
                 (UTC)          (F)  (DEG/KT/KT) (MB)    (MI)
HARRISON CRIB    1730            70  170/ 11/ 12   N/A
BURNHAM HARBOR   1800            75  190/ 11/ 12   N/A
CALUMET HARBOR   1748            74  200/  8/ 10 1019.7F
BURNS HARBOR     1740            75  190/ 12/ 15 1021.3F
MICHIGAN CITY    1740            73  170/ 12/ 13   N/A
$$

ABBREVIATIONS USED IN REMARKS
   TC - TEMPERATURE IN CELSIUS
  WCI - WIND CHILL INDEX
   HX - HEAT INDEX
  VSB - VISIBILITY
$$




USA.gov is the U.S. government's official web portal to all federal, state and local government web resources and services.